Regional Weather Roundup
Issued by NWS Mt. Holly, NJ

Home | Current Version | Previous Version | Text Only | Print | Product List | Glossary On
Versions: 1 2 3 4 5 6 7 8 9 10 11 12 13 14 15 16 17 18 19 20 21 22 23 24 25 26 27 28 29 30 31 32 33 34 35 36 37 38 39 40 41 42 43 44 45 46 47 48 49 50
000
ASUS41 KPHI 260110
RWRPHI

REGIONAL WEATHER ROUNDUP
NATIONAL WEATHER SERVICE MOUNT HOLLY NJ
900 PM EDT FRI JUL 25 2014

NOTE:  "FAIR" INDICATES FEW OR NO CLOUDS BELOW 12,000 FEET WITH NO
SIGNIFICANT WEATHER AND/OR OBSTRUCTIONS TO VISIBILITY.

 * = STATION DOES NOT REPORT PRECIPITATION (E.G. RAIN, SNOW, ETC.)
        OR FOG.

NJZ015>026-260200-
SOUTHERN NEW JERSEY

CITY           SKY/WX    TMP DP  RH WIND       PRES   REMARKS
POMONA         CLEAR     71  64  78 S6        30.04R
RIO GRANDE*    CLEAR     70  63  78 S6        30.05R
MILLVILLE      CLEAR     68  58  70 S3        30.03R
WRIGHTSTOWN    CLEAR     71  64  78 SE8       30.01R
MOUNT HOLLY    CLEAR     72  64  76 VRB6      30.01R
TRENTON        CLEAR     74  62  66 S8        30.01R

$$
NJZ001>014-260200-
NORTHERN NEW JERSEY

CITY           SKY/WX    TMP DP  RH WIND       PRES   REMARKS
SUSSEX         CLEAR     67  61  81 CALM      30.01R
ANDOVER*         N/A     64  60  87 CALM      30.02R
MORRISTOWN     CLEAR     66  61  82 W3        30.01R
NEWARK         PTCLDY    75  59  57 SW15      30.00R
TETERBORO      PTCLDY    79  58  48 SW9       29.99R
CALDWELL       CLEAR     74  56  53 CALM      30.01R
ALLAIRE*       CLEAR     72  59  64 S5        30.03R
TOMS RIVER*    CLEAR     70  63  78 S3        30.04R

$$
PAZ043-044-047-054-055-060>062-066>071-260200-
EASTERN PENNSYLVANIA

CITY           SKY/WX    TMP DP  RH WIND       PRES   REMARKS
PHILADELPHIA   PTCLDY    77  57  50 SW12      30.02R
NORTH PHILA    PTCLDY    77  59  53 S5        30.02R
BLUE BELL      CLEAR     75  55  50 CALM      30.01R
DOYLESTOWN     PTCLDY    69  60  73 CALM      30.01R
QUAKERTOWN*    CLEAR     68  59  73 CALM      30.03R
POTTSTOWN      CLEAR     72  54  53 CALM      30.03S
LANCASTER      CLEAR     68  56  65 CALM      30.02R
COATESVILLE    CLEAR     68  50  52 CALM      30.04S
READING        CLEAR     74  53  48 SW3       30.01R
ALLENTOWN      CLEAR     68  54  60 SW5       30.01R
MOUNT POCONO   PTCLDY    65  53  65 W3        30.06R
HAZLETON       CLEAR     66  54  63 CALM      30.08R
WILKES BARRE   CLEAR     70  52  52 S3        30.01S

$$
DEZALL-MDZ008-012-015-019-020-260200-
DELAWARE AND EASTERN MARYLAND

CITY           SKY/WX    TMP DP  RH WIND       PRES   REMARKS
WILMINGTON     CLEAR     74  54  49 SW6       30.03R
DOVER          CLEAR     71  57  60 SW5       30.01S
GEORGETOWN     CLEAR     70  61  73 S13       30.05R
EASTON         CLEAR     73  59  60 CALM      30.07R
PATUXENT       PTCLDY    72  59  63 S8        30.03R
OCEAN CITY     CLEAR     72  61  68 S3        30.05R
WALLOPS ISLAND CLEAR     72  64  76 CALM      30.05R
CAMBRIDGE      CLEAR     72  63  73 CALM      30.03S

$$
PAZ001-021-NYZ056-072-MDZ011-DCZ001-260200-
OTHER NEARBY LOCATIONS

CITY           SKY/WX    TMP DP  RH WIND       PRES   REMARKS
HARRISBURG     PTCLDY    69  59  70 S3        30.00S
STATE COLLEGE  PTCLDY    70  52  52 CALM      30.02S
WILLIAMSPORT   PTCLDY    68  56  65 E5        29.98S
BINGHAMTON     PTCLDY    68  52  56 CALM      30.01F
NEW YORK CITY  PTCLDY    75  57  53 VRB6G17   30.03R
BALTIMORE      PTCLDY    73  56  54 S3        30.02R
WASHINGTON DC  PTCLDY    78  56  46 SW6       30.02S

$$


USA.gov is the U.S. government's official web portal to all federal, state and local government web resources and services.